Weather History for PASI - August, 2013

Change the Weather History Date:

Monday, August 26, 2013

  Actual Average Record
Temperature  
Mean Temperature 64 °F -  
Max Temperature 70 °F 61 °F 74 °F (1975)
Min Temperature 59 °F 51 °F 44 °F (1984)
Degree Days  
Heating Degree Days 2    
Growing Degree Days 14 (Base 50)    
Moisture  
Dew Point 52 °F    
Average Humidity 64    
Maximum Humidity 83    
Minimum Humidity 50    
Precipitation  
Precipitation 0.01 in - - ()
Sea Level Pressure  
Sea Level Pressure 29.68 in    
Wind  
Wind Speed 11 mph (East)    
Max Wind Speed 16 mph    
Max Gust Speed 20 mph    
Visibility 10 miles    
Events Rain    
Averages and records for this station are not official NWS values.
T = Trace of Precipitation, MM = Missing Value Source: NWS Daily Summary

Daily Weather History Graph

Daily Weather History Graph

Search for Another Location

Airport or City:

Trip Planner

Search our weather history database for the weather conditions in past years. The results will help you decide how hot, cold, wet, or windy it might be!

Date:

Astronomy

Aug. 26, 2013 Rise Set
Actual Time 5:52 AM AKDT 8:12 PM AKDT
Civil Twilight 5:10 AM AKDT 8:54 PM AKDT
Nautical Twilight 4:15 AM AKDT 9:48 PM AKDT
Astronomical Twilight 3:07 AM AKDT 10:55 PM AKDT
Moon 10:02 PM AKDT (8/26) 1:24 PM AKDT (8/26)
Length of Visible Light 15h 44m
Length of Day
14h 20m
Waning Gibbous, 65% of the Moon is Illuminated
Aug 26
Waning Gibbous
Aug 28
Last Quarter
Sep 5
New
Sep 12
First Quarter
Sep 19
Full

Hourly Weather History & Observations

Time (AKDT) Temp. Dew Point Humidity Pressure Visibility Wind Dir Wind Speed Gust Speed Precip Events Conditions
12:53 AM 64.0 °F 51.1 °F 63% 29.64 in 10.0 mi ESE 11.5 mph - N/A   Overcast
1:53 AM 64.0 °F 51.1 °F 63% 29.65 in 10.0 mi ESE 13.8 mph - N/A   Overcast
2:53 AM 64.0 °F 51.1 °F 63% 29.66 in 10.0 mi ESE 16.1 mph - N/A   Overcast
3:53 AM 64.0 °F 51.1 °F 63% 29.67 in 10.0 mi ESE 16.1 mph - N/A   Overcast
4:53 AM 63.0 °F 51.1 °F 65% 29.68 in 10.0 mi ESE 12.7 mph - N/A   Scattered Clouds
5:53 AM 63.0 °F 51.1 °F 65% 29.68 in 10.0 mi ESE 10.4 mph - N/A   Overcast
6:53 AM 63.0 °F 51.1 °F 65% 29.69 in 10.0 mi ESE 8.1 mph - N/A   Overcast
7:53 AM 59.0 °F 54.0 °F 83% 29.70 in 10.0 mi NNW 9.2 mph - 0.00 in   Overcast
8:53 AM 60.1 °F 54.0 °F 80% 29.70 in 10.0 mi NNW 5.8 mph - 0.00 in   Overcast
9:53 AM 60.1 °F 55.0 °F 83% 29.70 in 10.0 mi North 5.8 mph - 0.00 in Rain Light Rain
10:53 AM 63.0 °F 52.0 °F 67% 29.71 in 10.0 mi ESE 8.1 mph - 0.01 in   Overcast
11:53 AM 64.0 °F 51.1 °F 63% 29.72 in 10.0 mi ESE 12.7 mph 19.6 mph 0.00 in   Overcast
12:53 PM 66.0 °F 51.1 °F 59% 29.71 in 10.0 mi ESE 15.0 mph - N/A   Overcast
1:53 PM 66.9 °F 51.1 °F 57% 29.71 in 10.0 mi ESE 11.5 mph - N/A   Overcast
2:53 PM 68.0 °F 50.0 °F 52% 29.70 in 10.0 mi East 13.8 mph - N/A   Mostly Cloudy
3:53 PM 68.0 °F 50.0 °F 52% 29.70 in 10.0 mi East 11.5 mph - N/A   Mostly Cloudy
4:53 PM 68.0 °F 48.9 °F 50% 29.69 in 10.0 mi ESE 9.2 mph - N/A   Overcast
5:53 PM 66.9 °F 51.1 °F 57% 29.68 in 10.0 mi East 8.1 mph - N/A   Overcast
6:53 PM 66.9 °F 50.0 °F 54% 29.67 in 10.0 mi East 6.9 mph - N/A   Overcast
7:53 PM 66.0 °F 51.1 °F 59% 29.67 in 10.0 mi East 8.1 mph - N/A   Overcast
8:53 PM 64.9 °F 52.0 °F 63% 29.67 in 10.0 mi East 8.1 mph - N/A   Overcast
9:53 PM 63.0 °F 54.0 °F 72% 29.67 in 10.0 mi NNW 5.8 mph - N/A   Overcast
10:53 PM 62.1 °F 54.0 °F 75% 29.67 in 10.0 mi Calm Calm - N/A   Overcast
11:53 PM 61.0 °F 53.1 °F 75% 29.67 in 10.0 mi Calm Calm - N/A   Overcast